Retour au catalogue

FENGYUN 1C DEB

ActifSSO
NORAD 31512·DEBRIS·🇨🇳 China

Lancé May 10, 1999 depuis Taiyuan Satellite Launch Center

Loading…

Prochains Passages (prochaines 24 heures)

TLE

VieillissantSource: Space-Track

Époque: Sep 10, 2026, 00:22 UTC

1 31512U 99025BXB 26253.01529442  .00001243  00000-0  32892-3 0  9999
2 31512  98.7833 162.7425 0143236  56.1138 317.1072 14.44774803694183

Suivez FENGYUN 1C DEB en temps réel avec AllMySat

Download on the App Store